User: anonymous   Login
Location: Elstree
(51.6403°N, 0.2969°W)
Time: 03:02:46
(UTC+00:00)
Language:

Meteor 1-13 Rocket - Orbit

View from above orbital plane
View from above orbital plane
View from above satellite
View from above satellite

Ground track
Ground track

The orbit data is extracted from the following two-line orbital elements,

1 06257U 72085B   21209.34376946 -.00000009  00000-0 -12652-4 0  9999
2 06257  81.2603 148.2050 0055878 221.8805 137.8083 14.06467803500375
Epoch (UTC): 28 July 2021 08:15:01
Eccentricity: 0.0055878
inclination: 81.2603°
perigee height: 831 km
apogee height: 912 km
right ascension of ascending node: 148.2050°
argument of perigee: 221.8805°
revolutions per day: 14.06467803
mean anomaly at epoch: 137.8083°
orbit number at epoch: 50037

The dashed part of the orbit path shows where the satellite is in the earth's shadow,  

DLR